KE8RXN Weather Reports


Display with metric or nautical units.
time (UTC)temp
F
wind
direction
speed
MPH
gust
MPH
rain 1hr
in
rain 24hr
in
rain mn
in
humidity
%
barometer
mb
20260503212215 53 257 3.0 3.0 0.00 0.00 0.00 68 1012.4
20260503211712 53 291 6.0 9.0 0.00 0.00 0.00 68 1012.3
20260503211208 53 233 4.0 8.0 0.00 0.00 0.00 69 1012.2
20260503210704 53 285 5.0 7.0 0.00 0.00 0.00 69 1012.3
20260503210201 52 230 8.0 11.0 0.00 0.00 0.00 70 1012.2
20260503205656 52 280 5.0 7.0 0.00 0.00 0.00 70 1012.3
20260503205153 52 354 3.0 6.0 0.00 0.00 0.00 71 1012.3
20260503204649 52 228 5.0 6.0 0.00 0.00 0.00 71 1012.4
20260503204147 52 210 5.0 8.0 0.00 0.00 0.00 71 1012.6
20260503203644 52 209 3.0 3.0 0.00 0.00 0.00 73 1012.4
20260503203142 51 233 1.0 3.0 0.00 0.00 0.00 75 1012.7
20260503202639 51 215 7.0 9.0 0.00 0.00 0.00 75 1013.0
20260503202137 51 195 7.0 10.0 0.00 0.00 0.00 76 1012.9
20260503201634 51 237 11.0 14.0 0.00 0.00 0.00 76 1013.0
20260503201132 50 225 3.0 8.0 0.00 0.00 0.00 79 1013.2
20260503200628 50 231 3.0 5.0 0.00 0.00 0.00 80 1013.2
20260503200124 51 220 8.0 10.0 0.00 0.00 0.00 78 1013.4
20260503195622 51 243 5.0 6.0 0.00 0.00 0.00 77 1013.7
20260503195118 51 220 9.0 10.0 0.00 0.00 0.00 75 1013.8
20260503194615 52 210 10.0 13.0 0.00 0.00 0.00 73 1013.8
20260503194110 52 225 9.0 13.0 0.00 0.00 0.00 70 1013.7
20260503193607 53 207 7.0 8.0 0.00 0.00 0.00 68 1013.4
20260503193103 53 176 7.0 9.0 0.00 0.00 0.00 66 1013.7
20260503192559 54 202 9.0 13.0 0.00 0.00 0.00 63 1013.6
20260503192055 55 245 10.0 14.0 0.00 0.00 0.00 61 1013.8
20260503191552 57 242 6.0 7.0 0.00 0.00 0.00 59 1013.8
20260503191048 57 221 11.0 14.0 0.00 0.00 0.00 57 1013.9
20260503190545 57 225 8.0 10.0 0.00 0.00 0.00 59 1013.8
20260503190043 58 258 5.0 7.0 0.00 0.00 0.00 57 1013.8
20260503185538 58 215 7.0 8.0 0.00 0.00 0.00 56 1013.7
20260503185033 59 228 7.0 10.0 0.00 0.00 0.00 55 1013.9
20260503184529 59 270 8.0 11.0 0.00 0.00 0.00 54 1013.7
20260503184026 59 219 8.0 11.0 0.00 0.00 0.00 53 1013.8
20260503183523 59 273 6.0 8.0 0.00 0.00 0.00 54 1013.7
20260503183020 58 199 9.0 14.0 0.00 0.00 0.00 55 1013.9
20260503182518 58 257 17.0 22.0 0.00 0.00 0.00 53 1014.0
20260503182016 59 223 15.0 20.0 0.00 0.00 0.00 53 1013.8
20260503181512 60 219 11.0 17.0 0.00 0.00 0.00 52 1013.9
20260503181008 59 217 9.0 11.0 0.00 0.00 0.00 52 1014.0
20260503180506 58 243 10.0 15.0 0.00 0.00 0.00 52 1014.2
20260503180003 59 240 7.0 8.0 0.00 0.00 0.00 52 1014.0
20260503175501 58 198 9.0 15.0 0.00 0.00 0.00 53 1014.1
20260503174957 58 212 10.0 11.0 0.00 0.00 0.00 53 1014.4
20260503174455 58 244 6.0 10.0 0.00 0.00 0.00 53 1014.3
20260503173950 59 251 6.0 9.0 0.00 0.00 0.00 53 1014.3
20260503173446 59 280 8.0 11.0 0.00 0.00 0.00 53 1014.2
20260503172943 59 214 3.0 6.0 0.00 0.00 0.00 53 1014.3
20260503172441 58 224 10.0 14.0 0.00 0.00 0.00 54 1014.2
20260503171937 57 237 9.0 11.0 0.00 0.00 0.00 54 1014.5
20260503171433 56 211 5.0 11.0 0.00 0.00 0.00 56 1014.6
20260503170931 57 238 15.0 22.0 0.00 0.00 0.00 56 1014.6
20260503170427 56 249 7.0 10.0 0.00 0.00 0.00 57 1014.6
20260503150820 53 225 6.0 9.0 0.00 0.00 0.00 57 1015.8
20260503150316 53 231 8.0 9.0 0.00 0.00 0.00 57 1015.5
20260503140240 51 208 3.0 3.0 0.00 0.00 0.00 59 1015.7
20260503131210 50 244 3.0 3.0 0.00 0.00 0.00 59 1016.1
20260503130707 50 206 7.0 9.0 0.00 0.00 0.00 58 1016.1
20260503130204 50 202 6.0 10.0 0.00 0.00 0.00 58 1016.1
20260503120130 47 227 5.0 7.0 0.00 0.00 0.00 63 1016.0
20260503110557 43 28 0.0 1.0 0.00 0.00 0.00 73 1016.0
20260503090444 40 93 1.0 1.0 0.00 0.00 0.00 74 1016.5
20260503081411 41 222 4.0 6.0 0.00 0.00 0.00 68 1016.6
20260503080908 41 218 3.0 5.0 0.00 0.00 0.00 67 1016.7
20260503080404 42 184 3.0 3.0 0.00 0.00 0.00 67 1016.7
20260503072841 42 245 2.0 3.0 0.00 0.00 0.00 62 1016.7
20260503072338 42 219 5.0 7.0 0.00 0.00 0.00 61 1017.0
20260503071834 42 240 6.0 8.0 0.00 0.00 0.00 61 1016.9
20260503071332 41 218 2.0 3.0 0.00 0.00 0.00 61 1017.0
20260503070828 41 218 4.0 6.0 0.00 0.00 0.00 61 1016.9
20260503070326 41 81 1.0 1.0 0.00 0.00 0.00 61 1016.8
20260503060251 39 337 1.0 1.0 0.00 0.00 0.00 63 1017.5
20260503054738 38 46 0.0 1.0 0.00 0.00 0.00 65 1017.8
20260503054235 38 47 0.0 0.0 0.00 0.00 0.00 65 1018.1
20260503053732 38 45 0.0 0.0 0.00 0.00 0.00 66 1018.1
20260503053231 38 42 0.0 0.0 0.00 0.00 0.00 66 1018.1
20260503052727 39 44 0.0 0.0 0.00 0.00 0.00 65 1018.1
20260503052224 39 50 0.0 0.0 0.00 0.00 0.00 65 1018.2
20260503051719 39 40 0.0 0.0 0.00 0.00 0.00 66 1018.1
20260503051217 39 83 1.0 1.0 0.00 0.00 0.00 66 1018.2
20260503050713 38 49 0.0 0.0 0.00 0.00 0.00 68 1018.3
20260503050210 38 41 0.0 0.0 0.00 0.00 0.00 67 1018.4
20260503045707 39 43 0.0 0.0 0.00 0.00 0.00 67 1018.5
20260503045205 39 45 0.0 0.0 0.00 0.00 0.00 67 1018.4
20260503044701 39 21 0.0 1.0 0.00 0.00 0.00 67 1018.5
20260503044158 39 43 0.0 0.0 0.00 0.00 0.00 68 1018.5
20260503043655 39 38 0.0 0.0 0.00 0.00 0.00 68 1018.6
20260503043153 39 37 0.0 0.0 0.00 0.00 0.00 68 1018.8
20260503042648 39 41 0.0 0.0 0.00 0.00 0.00 68 1018.8
20260503042145 39 40 0.0 0.0 0.00 0.00 0.00 68 1018.6
20260503041641 39 45 0.0 0.0 0.00 0.00 0.00 68 1018.7
20260503041139 39 39 0.0 0.0 0.00 0.00 0.00 67 1019.0
20260503040636 39 40 0.0 0.0 0.00 0.00 0.00 67 1018.9
20260503040134 40 41 0.0 0.0 0.00 0.00 0.00 65 1019.0
20260503035630 40 42 0.0 0.0 0.00 0.00 0.00 65 1018.9
20260503035128 40 48 0.0 0.0 0.00 0.00 0.00 64 1019.1
20260503034625 40 34 0.0 0.0 0.00 0.00 0.00 65 1019.1
20260503034122 40 118 1.0 1.0 0.00 0.00 0.00 66 1019.0
20260503033619 39 35 0.0 0.0 0.00 0.00 0.00 68 1019.3
20260503033117 39 43 0.0 0.0 0.00 0.00 0.00 69 1019.2
20260503032615 39 41 0.0 0.0 0.00 0.00 0.00 69 1019.3
20260503032113 39 44 0.0 0.0 0.00 0.00 0.00 68 1019.1
20260503031610 39 38 0.0 0.0 0.00 0.00 0.00 68 1019.4
20260503031108 39 40 0.0 0.0 0.00 0.00 0.00 69 1019.3
20260503030604 39 41 0.0 0.0 0.00 0.00 0.00 68 1019.2
20260503030101 39 42 0.0 0.0 0.00 0.00 0.00 68 1019.4
20260503025557 39 36 0.0 0.0 0.00 0.00 0.00 68 1019.3
20260503025055 39 36 0.0 0.0 0.00 0.00 0.00 66 1019.4
20260503024551 39 35 0.0 0.0 0.00 0.00 0.00 66 1019.4
20260503024049 39 43 0.0 0.0 0.00 0.00 0.00 65 1019.5
20260503023545 40 41 0.0 0.0 0.00 0.00 0.00 65 1019.4
20260503023043 40 41 0.0 0.0 0.00 0.00 0.00 66 1019.6
20260503022538 40 40 0.0 0.0 0.00 0.00 0.00 65 1019.7
20260503022033 40 49 0.0 1.0 0.00 0.00 0.00 64 1019.5
20260503021530 40 26 0.0 1.0 0.00 0.00 0.00 66 1019.8
20260503021027 40 34 0.0 0.0 0.00 0.00 0.00 65 1019.6
20260503020524 40 37 0.0 0.0 0.00 0.00 0.00 64 1019.7
20260503020021 41 44 0.0 0.0 0.00 0.00 0.00 64 1019.6
20260503015518 41 33 0.0 0.0 0.00 0.00 0.00 63 1019.8
20260503015015 41 65 1.0 1.0 0.00 0.00 0.00 63 1019.5
20260503014511 42 58 0.0 1.0 0.00 0.00 0.00 61 1019.4
20260503014009 42 9 1.0 1.0 0.00 0.00 0.00 59 1019.7
20260503013506 42 216 2.0 2.0 0.00 0.00 0.00 58 1019.5
20260503013004 43 23 0.0 0.0 0.00 0.00 0.00 58 1019.6
20260503012501 43 245 3.0 3.0 0.00 0.00 0.00 56 1019.5
20260503011956 43 214 2.0 2.0 0.00 0.00 0.00 56 1019.7
20260503011454 43 310 2.0 2.0 0.00 0.00 0.00 55 1019.6
20260503010951 43 233 2.0 3.0 0.00 0.00 0.00 54 1019.5
20260503010447 44 357 1.0 1.0 0.00 0.00 0.00 53 1019.7
20260503005945 44 260 3.0 3.0 0.00 0.00 0.00 52 1019.5
20260503005442 44 263 2.0 3.0 0.00 0.00 0.00 51 1019.4
20260503004939 44 284 2.0 2.0 0.00 0.00 0.00 50 1019.5
20260503004435 44 266 2.0 2.0 0.00 0.00 0.00 50 1019.5
20260503003933 45 290 2.0 2.0 0.00 0.00 0.00 50 1019.5
20260503003430 45 233 2.0 2.0 0.00 0.00 0.00 50 1019.4
20260503002927 46 254 3.0 3.0 0.00 0.00 0.00 48 1019.4
20260503002424 46 317 1.0 1.0 0.00 0.00 0.00 48 1019.2
20260503001920 46 240 3.0 3.0 0.00 0.00 0.00 47 1019.3
20260503001417 47 227 2.0 2.0 0.00 0.00 0.00 47 1019.4
20260503000915 47 264 4.0 5.0 0.00 0.00 0.00 46 1019.4
20260503000411 48 225 5.0 7.0 0.00 0.00 0.00 47 1019.5
20260502235909 48 242 2.0 3.0 0.00 0.00 0.00 45 1019.4
20260502235405 48 263 3.0 5.0 0.00 0.00 0.00 44 1019.4
20260502234903 48 319 1.0 1.0 0.00 0.00 0.00 43 1019.4
20260502234359 48 320 1.0 1.0 0.00 0.00 0.00 45 1019.3
20260502233856 48 273 3.0 3.0 0.00 0.00 0.00 44 1019.3
20260502233352 48 351 2.0 2.0 0.00 0.00 0.00 45 1019.5
20260502232849 49 263 3.0 3.0 0.00 0.00 0.00 44 1019.5
20260502232345 49 312 2.0 2.0 0.00 0.00 0.00 43 1019.4
20260502231842 49 241 3.0 5.0 0.00 0.00 0.00 43 1019.3
20260502231340 49 292 3.0 3.0 0.00 0.00 0.00 43 1019.6
20260502230838 49 325 4.0 6.0 0.00 0.00 0.00 42 1019.5
20260502230336 49 254 2.0 3.0 0.00 0.00 0.00 42 1019.4
20260502225832 50 295 2.0 2.0 0.00 0.00 0.00 41 1019.5
20260502225329 50 269 2.0 2.0 0.00 0.00 0.00 39 1019.4
20260502224826 50 230 6.0 8.0 0.00 0.00 0.00 39 1019.6
20260502224322 50 248 7.0 9.0 0.00 0.00 0.00 39 1019.6
20260502223820 50 239 3.0 3.0 0.00 0.00 0.00 38 1019.8
20260502223318 50 301 3.0 5.0 0.00 0.00 0.00 38 1019.5
20260502222815 50 281 2.0 3.0 0.00 0.00 0.00 39 1019.6
20260502222312 51 235 5.0 8.0 0.00 0.00 0.00 38 1019.7
20260502221808 51 317 1.0 2.0 0.00 0.00 0.00 38 1019.8
20260502221304 51 259 3.0 3.0 0.00 0.00 0.00 38 1019.8
20260502220801 51 351 1.0 1.0 0.00 0.00 0.00 39 1019.7
20260502220257 51 330 1.0 2.0 0.00 0.00 0.00 39 1019.9
20260502215754 51 305 5.0 7.0 0.00 0.00 0.00 38 1019.7
20260502215251 51 252 3.0 3.0 0.00 0.00 0.00 39 1019.8
20260502214748 51 337 2.0 2.0 0.00 0.00 0.00 40 1019.8
20260502214245 51 228 5.0 7.0 0.00 0.00 0.00 39 1019.8
20260502213742 51 276 3.0 5.0 0.00 0.00 0.00 39 1019.7
20260502213240 51 299 2.0 2.0 0.00 0.00 0.00 40 1019.8
20260502212738 51 257 3.0 5.0 0.00 0.00 0.00 38 1019.7